G7NPW-1 Weather Reports


Display with metric or nautical units.
time (UTC)temp
F
wind
direction
speed
MPH
gust
MPH
rain 1hr
in
rain 24hr
in
rain mn
in
humidity
%
barometer
mb
20260507150505 59 130 8.0 8.0 0.00 0.00 0.00 41 1014.9
20260507150005 59 130 8.0 8.0 0.00 0.00 0.00 41 1014.9
20260507144007 57 130 8.0 8.0 0.00 0.00 0.00 44 1014.9
20260507143503 57 130 8.0 8.0 0.00 0.00 0.00 44 1014.9
20260507142007 57 130 8.0 8.0 0.00 0.00 0.00 44 1014.9
20260507141504 57 130 8.0 8.0 0.00 0.00 0.00 44 1014.9
20260507140504 57 130 8.0 8.0 0.00 0.00 0.00 44 1014.9
20260507134504 57 140 7.0 7.0 0.00 0.00 0.00 47 1014.9
20260507133007 57 140 7.0 7.0 0.00 0.00 0.00 47 1014.9
20260507132007 57 140 7.0 7.0 0.00 0.00 0.00 47 1014.9
20260507131504 57 140 7.0 7.0 0.00 0.00 0.00 47 1014.9
20260507125008 59 160 10.0 10.0 0.00 0.00 0.00 44 1015.9
20260507124504 59 160 10.0 10.0 0.00 0.00 0.00 44 1015.9
20260507123008 59 160 10.0 10.0 0.00 0.00 0.00 44 1015.9
20260507122503 59 160 10.0 10.0 0.00 0.00 0.00 44 1015.9
20260507114504 57 160 7.0 7.0 0.00 0.00 0.00 54 1015.9
20260507114008 57 160 7.0 7.0 0.00 0.00 0.00 54 1015.9
20260507113503 57 160 7.0 7.0 0.00 0.00 0.00 54 1015.9
20260507112504 57 160 7.0 7.0 0.00 0.00 0.00 54 1015.9
20260507112007 57 160 7.0 7.0 0.00 0.00 0.00 54 1015.9
20260507110505 57 160 7.0 7.0 0.00 0.00 0.00 54 1015.9
20260507110004 57 160 7.0 7.0 0.00 0.00 0.00 54 1015.9
20260507105007 54 160 7.0 7.0 0.00 0.00 0.00 57 1015.9
20260507102504 54 160 7.0 7.0 0.00 0.00 0.00 57 1015.9
20260507100005 54 160 7.0 7.0 0.00 0.00 0.00 57 1015.9
20260507095007 50 140 7.0 7.0 0.00 0.00 0.00 76 1015.9
20260507094503 50 140 7.0 7.0 0.00 0.00 0.00 76 1015.9
20260507094007 50 140 7.0 7.0 0.00 0.00 0.00 76 1015.9
20260507093008 50 140 7.0 7.0 0.00 0.00 0.00 76 1015.9
20260507092504 50 140 7.0 7.0 0.00 0.00 0.00 76 1015.9
20260507091007 50 140 7.0 7.0 0.00 0.00 0.00 76 1015.9
20260507085006 46 180 6.0 6.0 0.00 0.00 0.00 81 1015.9
20260507084007 46 180 6.0 6.0 0.00 0.00 0.00 81 1015.9
20260507083504 46 180 6.0 6.0 0.00 0.00 0.00 81 1015.9
20260507083007 46 180 6.0 6.0 0.00 0.00 0.00 81 1015.9
20260507081504 46 180 6.0 6.0 0.00 0.00 0.00 81 1015.9
20260507075007 45 80 10.0 10.0 0.00 0.00 0.00 87 1015.9
20260507074008 45 80 10.0 10.0 0.00 0.00 0.00 87 1015.9
20260507073505 45 80 10.0 10.0 0.00 0.00 0.00 87 1015.9
20260507072008 45 80 10.0 10.0 0.00 0.00 0.00 87 1015.9
20260507071504 45 80 10.0 10.0 0.00 0.00 0.00 87 1015.9
20260507071008 45 80 10.0 10.0 0.00 0.00 0.00 87 1015.9
20260507065008 43 80 10.0 10.0 0.00 0.00 0.00 86 1014.9
20260507063504 43 80 10.0 10.0 0.00 0.00 0.00 86 1014.9
20260507062503 43 80 10.0 10.0 0.00 0.00 0.00 86 1014.9
20260507061504 43 80 10.0 10.0 0.00 0.00 0.00 86 1014.9
20260507061008 43 80 10.0 10.0 0.00 0.00 0.00 86 1014.9
20260507060504 43 80 10.0 10.0 0.00 0.00 0.00 86 1014.9
20260507060006 43 80 10.0 10.0 0.00 0.00 0.00 86 1014.9
20260506210004 43 80 10.0 10.0 0.00 0.00 0.00 86 1014.9
20260506204007 45 80 8.0 8.0 0.00 0.00 0.00 81 1014.9
20260506203504 45 80 8.0 8.0 0.00 0.00 0.00 81 1014.9
20260506201504 45 80 8.0 8.0 0.00 0.00 0.00 81 1014.9
20260506201007 45 80 8.0 8.0 0.00 0.00 0.00 81 1014.9
20260506195007 46 80 10.0 10.0 0.00 0.00 0.00 81 1014.9
20260506194504 46 80 10.0 10.0 0.00 0.00 0.00 81 1014.9
20260506193504 46 80 10.0 10.0 0.00 0.00 0.00 81 1014.9
20260506193008 46 80 10.0 10.0 0.00 0.00 0.00 81 1014.9
20260506192007 46 80 10.0 10.0 0.00 0.00 0.00 81 1014.9
20260506191504 46 80 10.0 10.0 0.00 0.00 0.00 81 1014.9
20260506191008 46 80 10.0 10.0 0.00 0.00 0.00 81 1014.9
20260506184504 48 80 10.0 10.0 0.00 0.00 0.00 75 1014.9
20260506182504 48 80 10.0 10.0 0.00 0.00 0.00 75 1014.9
20260506181504 48 80 10.0 10.0 0.00 0.00 0.00 75 1014.9
20260506180504 48 80 10.0 12.0 0.00 0.00 0.00 75 1014.9
20260506180005 48 80 10.0 12.0 0.00 0.00 0.00 75 1014.9
20260506174007 50 70 12.0 12.0 0.00 0.00 0.00 71 1014.9
20260506172007 50 70 12.0 12.0 0.00 0.00 0.00 71 1014.9
20260506171007 50 70 12.0 12.0 0.00 0.00 0.00 71 1014.9
20260506170004 50 70 12.0 12.0 0.00 0.00 0.00 71 1014.9
20260506165504 50 60 12.0 12.0 0.00 0.00 0.00 66 1013.9
20260506165007 50 60 12.0 12.0 0.00 0.00 0.00 66 1013.9
20260506164006 50 60 12.0 12.0 0.00 0.00 0.00 66 1013.9
20260506163007 50 60 12.0 12.0 0.00 0.00 0.00 66 1013.9
20260506162504 50 60 12.0 12.0 0.00 0.00 0.00 66 1013.9
20260506162007 50 60 12.0 12.0 0.00 0.00 0.00 66 1013.9
20260506161007 50 60 12.0 12.0 0.00 0.00 0.00 66 1013.9
20260506160004 50 60 12.0 12.0 0.00 0.00 0.00 66 1013.9
20260506155505 52 50 12.0 12.0 0.00 0.00 0.00 57 1013.9
20260506154008 52 50 12.0 12.0 0.00 0.00 0.00 57 1013.9
20260506153503 52 50 12.0 12.0 0.00 0.00 0.00 57 1013.9
20260506152504 52 50 12.0 12.0 0.00 0.00 0.00 57 1013.9
20260506152007 52 50 12.0 12.0 0.00 0.00 0.00 57 1013.9
20260506151504 52 50 12.0 12.0 0.00 0.00 0.00 57 1013.9
20260506151007 52 50 12.0 12.0 0.00 0.00 0.00 57 1013.9